Time,TemperatureF,DewpointF,PressureIn,WindDirection,WindDirectionDegrees,WindSpeedMPH,WindSpeedGustMPH,Humidity,HourlyPrecipIn,Conditions,Clouds,dailyrainin,SoftwareType,DateUTC
2013-01-31 00:06:00,39.2,35.0,29.10,West,275,3.0,-999.0,85,-99.99,,,0.52,weatherlink.com 1.10,2013-01-31 05:06:00,
2013-01-31 00:21:00,37.2,33.0,29.14,WSW,237,11.0,-999.0,86,-99.99,,,0.54,weatherlink.com 1.10,2013-01-31 05:21:00,
2013-01-31 00:36:00,36.2,33.0,29.12,SW,215,6.0,-999.0,88,-99.99,,,0.55,weatherlink.com 1.10,2013-01-31 05:36:00,
2013-01-31 00:51:00,35.9,33.0,29.13,WSW,240,4.0,-999.0,89,-99.99,,,0.01,weatherlink.com 1.10,2013-01-31 05:51:00,
2013-01-31 01:06:00,35.2,32.0,29.15,WSW,250,12.0,-999.0,89,-99.99,,,0.03,weatherlink.com 1.10,2013-01-31 06:06:00,
2013-01-31 01:21:00,34.3,31.0,29.15,SSW,203,2.0,-999.0,89,-99.99,,,0.04,weatherlink.com 1.10,2013-01-31 06:21:00,
2013-01-31 01:36:00,34.1,32.0,29.14,SSW,198,6.0,-999.0,90,-99.99,,,0.05,weatherlink.com 1.10,2013-01-31 06:36:00,
2013-01-31 01:52:00,33.7,31.0,29.15,WSW,251,10.0,-999.0,90,-99.99,,,0.05,weatherlink.com 1.10,2013-01-31 06:52:00,
2013-01-31 02:06:00,33.1,31.0,29.16,WNW,284,12.0,-999.0,90,-99.99,,,0.06,weatherlink.com 1.10,2013-01-31 07:06:00,
2013-01-31 02:21:00,33.1,30.0,29.18,SW,224,10.0,-999.0,89,-99.99,,,0.06,weatherlink.com 1.10,2013-01-31 07:21:00,
2013-01-31 02:36:00,33.2,30.0,29.18,WSW,243,5.0,-999.0,87,-99.99,,,0.06,weatherlink.com 1.10,2013-01-31 07:36:00,
2013-01-31 02:51:00,32.5,29.0,29.19,SSW,193,1.0,-999.0,88,-99.99,,,0.06,weatherlink.com 1.10,2013-01-31 07:51:00,
2013-01-31 03:06:00,31.5,29.0,29.20,SW,224,9.0,-999.0,89,-99.99,,,0.06,weatherlink.com 1.10,2013-01-31 08:06:00,
2013-01-31 03:21:00,31.2,27.0,29.22,SW,234,14.0,-999.0,85,-99.99,,,0.06,weatherlink.com 1.10,2013-01-31 08:21:00,
2013-01-31 03:36:00,30.9,25.0,29.22,NNW,329,10.0,-999.0,78,-99.99,,,0.06,weatherlink.com 1.10,2013-01-31 08:36:00,
2013-01-31 03:51:00,30.7,23.0,29.23,NW,315,20.0,-999.0,74,-99.99,,,0.06,weatherlink.com 1.10,2013-01-31 08:51:00,
2013-01-31 04:06:00,30.6,23.0,29.24,SSW,208,13.0,-999.0,74,-99.99,,,0.06,weatherlink.com 1.10,2013-01-31 09:06:00,
2013-01-31 04:21:00,30.4,22.0,29.25,West,260,5.0,-999.0,72,-99.99,,,0.06,weatherlink.com 1.10,2013-01-31 09:21:00,
2013-01-31 04:37:00,29.8,21.0,29.27,SW,232,6.0,-999.0,71,-99.99,,,0.06,weatherlink.com 1.10,2013-01-31 09:37:00,
2013-01-31 04:51:00,29.7,20.0,29.28,WNW,302,8.0,-999.0,68,-99.99,,,0.06,weatherlink.com 1.10,2013-01-31 09:51:00,
2013-01-31 05:06:00,29.5,21.0,29.28,SW,233,2.0,-999.0,70,-99.99,,,0.06,weatherlink.com 1.10,2013-01-31 10:06:00,
2013-01-31 05:21:00,29.1,21.0,29.29,West,270,6.0,-999.0,73,-99.99,,,0.06,weatherlink.com 1.10,2013-01-31 10:21:00,
2013-01-31 05:37:00,29.1,22.0,29.30,NNW,333,6.0,-999.0,74,-99.99,,,0.06,weatherlink.com 1.10,2013-01-31 10:37:00,
2013-01-31 05:51:00,28.2,23.0,29.30,NNW,332,6.0,-999.0,81,-99.99,,,0.06,weatherlink.com 1.10,2013-01-31 10:51:00,
2013-01-31 06:06:00,28.2,22.0,29.31,SW,216,1.0,-999.0,79,-99.99,,,0.06,weatherlink.com 1.10,2013-01-31 11:06:00,
2013-01-31 06:21:00,27.9,22.0,29.32,WNW,287,2.0,-999.0,78,-99.99,,,0.06,weatherlink.com 1.10,2013-01-31 11:21:00,
2013-01-31 06:36:00,27.0,23.0,29.34,NW,305,7.0,-999.0,84,-99.99,,,0.06,weatherlink.com 1.10,2013-01-31 11:36:00,
2013-01-31 06:51:00,27.0,23.0,29.35,SW,215,7.0,-999.0,83,-99.99,,,0.06,weatherlink.com 1.10,2013-01-31 11:51:00,
2013-01-31 07:06:00,26.9,22.0,29.36,WSW,243,1.0,-999.0,83,-99.99,,,0.06,weatherlink.com 1.10,2013-01-31 12:06:00,
2013-01-31 07:21:00,26.6,21.0,29.37,West,268,11.0,-999.0,80,-99.99,,,0.06,weatherlink.com 1.10,2013-01-31 12:21:00,
2013-01-31 07:36:00,26.3,20.0,29.39,WSW,239,11.0,-999.0,78,-99.99,,,0.06,weatherlink.com 1.10,2013-01-31 12:36:00,
2013-01-31 07:51:00,25.7,21.0,29.40,WNW,299,7.0,-999.0,81,-99.99,,,0.06,weatherlink.com 1.10,2013-01-31 12:51:00,
2013-01-31 08:07:00,25.4,20.0,29.42,SW,219,8.0,-999.0,81,-99.99,,,0.06,weatherlink.com 1.10,2013-01-31 13:07:00,
2013-01-31 08:22:00,25.3,19.0,29.42,West,260,5.0,-999.0,78,-99.99,,,0.06,weatherlink.com 1.10,2013-01-31 13:22:00,
2013-01-31 08:36:00,24.8,19.0,29.43,West,260,5.0,-999.0,80,-99.99,,,0.06,weatherlink.com 1.10,2013-01-31 13:36:00,
2013-01-31 08:51:00,23.8,20.0,29.45,WSW,239,5.0,-999.0,85,-99.99,,,0.06,weatherlink.com 1.10,2013-01-31 13:51:00,
2013-01-31 09:07:00,23.6,19.0,29.47,WSW,239,13.0,-999.0,81,-99.99,,,0.06,weatherlink.com 1.10,2013-01-31 14:07:00,
2013-01-31 09:21:00,23.3,19.0,29.48,WSW,246,1.0,-999.0,84,-99.99,,,0.06,weatherlink.com 1.10,2013-01-31 14:21:00,
2013-01-31 09:36:00,23.0,20.0,29.48,SW,220,1.0,-999.0,87,-99.99,,,0.06,weatherlink.com 1.10,2013-01-31 14:36:00,
2013-01-31 09:51:00,22.7,20.0,29.49,WSW,241,0.0,-999.0,88,-99.99,,,0.06,weatherlink.com 1.10,2013-01-31 14:51:00,
2013-01-31 10:06:00,22.9,20.0,29.50,SW,232,11.0,-999.0,88,-99.99,,,0.06,weatherlink.com 1.10,2013-01-31 15:06:00,
2013-01-31 10:21:00,22.7,19.0,29.50,SW,220,3.0,-999.0,85,-99.99,,,0.06,weatherlink.com 1.10,2013-01-31 15:21:00,
2013-01-31 10:36:00,22.5,18.0,29.51,West,268,6.0,-999.0,82,-99.99,,,0.06,weatherlink.com 1.10,2013-01-31 15:36:00,
2013-01-31 10:52:00,22.7,18.0,29.52,NW,320,15.0,-999.0,81,-99.99,,,0.06,weatherlink.com 1.10,2013-01-31 15:52:00,
2013-01-31 11:06:00,22.9,17.0,29.54,WSW,237,10.0,-999.0,78,-99.99,,,0.06,weatherlink.com 1.10,2013-01-31 16:06:00,
2013-01-31 11:22:00,23.0,17.0,29.54,NNW,332,7.0,-999.0,76,-99.99,,,0.06,weatherlink.com 1.10,2013-01-31 16:22:00,
2013-01-31 11:36:00,23.0,16.0,29.55,West,272,12.0,-999.0,73,-99.99,,,0.06,weatherlink.com 1.10,2013-01-31 16:36:00,
2013-01-31 11:51:00,22.7,16.0,29.55,SW,220,5.0,-999.0,74,-99.99,,,0.06,weatherlink.com 1.10,2013-01-31 16:51:00,
2013-01-31 12:06:00,22.9,16.0,29.57,West,267,0.0,-999.0,75,-99.99,,,0.06,weatherlink.com 1.10,2013-01-31 17:06:00,
2013-01-31 12:21:00,22.5,15.0,29.57,SW,215,7.0,-999.0,74,-99.99,,,0.06,weatherlink.com 1.10,2013-01-31 17:21:00,
2013-01-31 12:36:00,23.6,14.0,29.57,SW,220,6.0,-999.0,67,-99.99,,,0.06,weatherlink.com 1.10,2013-01-31 17:36:00,
2013-01-31 12:52:00,23.0,13.0,29.57,WSW,240,11.0,-999.0,66,-99.99,,,0.06,weatherlink.com 1.10,2013-01-31 17:52:00,
2013-01-31 13:06:00,23.9,11.0,29.57,SW,234,8.0,-999.0,59,-99.99,,,0.06,weatherlink.com 1.10,2013-01-31 18:06:00,
2013-01-31 13:21:00,23.8,12.0,29.58,SW,227,3.0,-999.0,60,-99.99,,,0.06,weatherlink.com 1.10,2013-01-31 18:21:00,
2013-01-31 13:37:00,23.0,14.0,29.58,WSW,241,9.0,-999.0,68,-99.99,,,0.06,weatherlink.com 1.10,2013-01-31 18:37:00,
2013-01-31 13:51:00,21.4,16.0,29.59,West,260,5.0,-999.0,80,-99.99,,,0.06,weatherlink.com 1.10,2013-01-31 18:51:00,
2013-01-31 14:07:00,21.3,16.0,29.60,NW,312,3.0,-999.0,80,-99.99,,,0.06,weatherlink.com 1.10,2013-01-31 19:07:00,
2013-01-31 14:21:00,22.1,15.0,29.61,WSW,240,5.0,-999.0,74,-99.99,,,0.06,weatherlink.com 1.10,2013-01-31 19:21:00,
2013-01-31 14:37:00,21.4,14.0,29.62,SW,216,2.0,-999.0,72,-99.99,,,0.06,weatherlink.com 1.10,2013-01-31 19:37:00,
2013-01-31 14:51:00,20.8,14.0,29.62,South,179,2.0,-999.0,75,-99.99,,,0.06,weatherlink.com 1.10,2013-01-31 19:51:00,
2013-01-31 15:06:00,21.3,13.0,29.64,South,191,5.0,-999.0,70,-99.99,,,0.06,weatherlink.com 1.10,2013-01-31 20:06:00,
2013-01-31 15:21:00,21.6,14.0,29.64,SW,229,14.0,-999.0,71,-99.99,,,0.06,weatherlink.com 1.10,2013-01-31 20:21:00,
2013-01-31 15:36:00,20.6,14.0,29.65,South,174,5.0,-999.0,75,-99.99,,,0.06,weatherlink.com 1.10,2013-01-31 20:36:00,
2013-01-31 15:51:00,20.2,14.0,29.66,SW,227,5.0,-999.0,76,-99.99,,,0.06,weatherlink.com 1.10,2013-01-31 20:51:00,
2013-01-31 16:06:00,20.5,13.0,29.66,SW,233,8.0,-999.0,72,-99.99,,,0.06,weatherlink.com 1.10,2013-01-31 21:06:00,
2013-01-31 16:21:00,21.0,12.0,29.67,WSW,248,7.0,-999.0,68,-99.99,,,0.06,weatherlink.com 1.10,2013-01-31 21:21:00,
2013-01-31 16:36:00,20.6,12.0,29.68,West,281,10.0,-999.0,69,-99.99,,,0.06,weatherlink.com 1.10,2013-01-31 21:36:00,
2013-01-31 16:52:00,20.3,13.0,29.68,South,174,0.0,-999.0,73,-99.99,,,0.06,weatherlink.com 1.10,2013-01-31 21:52:00,
2013-01-31 17:06:00,20.3,13.0,29.68,SW,222,4.0,-999.0,74,-99.99,,,0.06,weatherlink.com 1.10,2013-01-31 22:06:00,
2013-01-31 17:21:00,20.2,13.0,29.69,West,277,7.0,-999.0,74,-99.99,,,0.06,weatherlink.com 1.10,2013-01-31 22:21:00,
2013-01-31 17:36:00,20.2,13.0,29.70,SW,236,1.0,-999.0,75,-99.99,,,0.06,weatherlink.com 1.10,2013-01-31 22:36:00,
2013-01-31 17:51:00,20.3,14.0,29.70,South,188,0.0,-999.0,76,-99.99,,,0.06,weatherlink.com 1.10,2013-01-31 22:51:00,
2013-01-31 18:06:00,19.9,15.0,29.70,SSW,210,0.0,-999.0,81,-99.99,,,0.06,weatherlink.com 1.10,2013-01-31 23:06:00,
2013-01-31 18:21:00,20.0,15.0,29.70,West,281,7.0,-999.0,81,-99.99,,,0.06,weatherlink.com 1.10,2013-01-31 23:21:00,
2013-01-31 18:36:00,20.0,15.0,29.70,South,182,2.0,-999.0,82,-99.99,,,0.06,weatherlink.com 1.10,2013-01-31 23:36:00,
2013-01-31 18:52:00,20.2,16.0,29.71,WSW,244,11.0,-999.0,84,-99.99,,,0.06,weatherlink.com 1.10,2013-01-31 23:52:00,
2013-01-31 19:06:00,20.2,16.0,29.71,SSW,192,7.0,-999.0,85,-99.99,,,0.06,weatherlink.com 1.10,2013-02-01 00:06:00,
2013-01-31 19:22:00,20.2,17.0,29.71,SW,215,5.0,-999.0,86,-99.99,,,0.06,weatherlink.com 1.10,2013-02-01 00:22:00,
2013-01-31 19:36:00,20.2,16.0,29.71,WSW,256,3.0,-999.0,85,-99.99,,,0.06,weatherlink.com 1.10,2013-02-01 00:36:00,
2013-01-31 19:51:00,20.3,16.0,29.71,SW,217,8.0,-999.0,83,-99.99,,,0.06,weatherlink.com 1.10,2013-02-01 00:51:00,
2013-01-31 20:06:00,20.5,15.0,29.72,South,189,16.0,-999.0,79,-99.99,,,0.06,weatherlink.com 1.10,2013-02-01 01:06:00,
2013-01-31 20:21:00,20.0,16.0,29.73,West,277,0.0,-999.0,83,-99.99,,,0.06,weatherlink.com 1.10,2013-02-01 01:21:00,
2013-01-31 20:36:00,19.7,16.0,29.73,SSW,202,7.0,-999.0,84,-99.99,,,0.06,weatherlink.com 1.10,2013-02-01 01:36:00,
2013-01-31 20:52:00,19.9,14.0,29.73,NNW,329,5.0,-999.0,79,-99.99,,,0.06,weatherlink.com 1.10,2013-02-01 01:52:00,
2013-01-31 21:06:00,19.9,14.0,29.74,WSW,251,3.0,-999.0,77,-99.99,,,0.06,weatherlink.com 1.10,2013-02-01 02:06:00,
2013-01-31 21:22:00,19.7,13.0,29.75,SW,224,2.0,-999.0,75,-99.99,,,0.06,weatherlink.com 1.10,2013-02-01 02:22:00,
2013-01-31 21:36:00,19.4,12.0,29.75,SW,230,11.0,-999.0,74,-99.99,,,0.06,weatherlink.com 1.10,2013-02-01 02:36:00,
2013-01-31 21:51:00,19.4,12.0,29.76,West,280,8.0,-999.0,73,-99.99,,,0.06,weatherlink.com 1.10,2013-02-01 02:51:00,
2013-01-31 22:07:00,19.2,12.0,29.76,SW,222,2.0,-999.0,74,-99.99,,,0.06,weatherlink.com 1.10,2013-02-01 03:07:00,
2013-01-31 22:21:00,19.2,12.0,29.77,SW,220,1.0,-999.0,74,-99.99,,,0.06,weatherlink.com 1.10,2013-02-01 03:21:00,
2013-01-31 22:37:00,18.8,12.0,29.77,West,263,0.0,-999.0,76,-99.99,,,0.06,weatherlink.com 1.10,2013-02-01 03:37:00,
2013-01-31 22:52:00,18.6,13.0,29.77,South,188,1.0,-999.0,78,-99.99,,,0.06,weatherlink.com 1.10,2013-02-01 03:52:00,
2013-01-31 23:07:00,18.1,13.0,29.77,WSW,244,8.0,-999.0,79,-99.99,,,0.06,weatherlink.com 1.10,2013-02-01 04:07:00,
2013-01-31 23:22:00,17.7,12.0,29.77,SSW,213,6.0,-999.0,77,-99.99,,,0.06,weatherlink.com 1.10,2013-02-01 04:22:00,
2013-01-31 23:37:00,17.7,11.0,29.77,WNW,284,0.0,-999.0,75,-99.99,,,0.06,weatherlink.com 1.10,2013-02-01 04:37:00,
2013-01-31 23:52:00,17.7,12.0,29.78,SW,230,1.0,-999.0,78,-99.99,,,0.06,weatherlink.com 1.10,2013-02-01 04:52:00,